Weather History for McAllen, TX

Change the Weather History Date:

Tuesday, November 27, 2012

  Actual Average Record
Temperature  
Mean Temperature 67 °F 66 °F  
Max Temperature 73 °F 76 °F 95 °F (1948)
Min Temperature 60 °F 56 °F 38 °F (2010)
Degree Days  
Heating Degree Days 0 3  
Month to date heating degree days 7 46  
Since 1 July heating degree days 12 51  
Cooling Degree Days 2 4  
Month to date cooling degree days 196 175  
Year to date cooling degree days 5075 4357  
Growing Degree Days 17 (Base 50)    
Moisture  
Dew Point 53 °F    
Average Humidity 66    
Maximum Humidity 84    
Minimum Humidity 47    
Precipitation  
Precipitation 0.00 in 0.02 in 1.07 in (1963)
Month to date precipitation 0.84 0.81  
Year to date precipitation 17.47 20.93  
Sea Level Pressure  
Sea Level Pressure 30.23 in    
Wind  
Wind Speed 9 mph (North)    
Max Wind Speed 21 mph    
Max Gust Speed 25 mph    
Visibility 10 miles    
Events      
T = Trace of Precipitation, MM = Missing Value Source: NWS Daily Summary

Daily Weather History Graph

Daily Weather History Graph

Search for Another Location

Airport:

Trip Planner

Search our weather history database for the weather conditions in past years. The results will help you decide how hot, cold, wet, or windy it might be!

Date:

Astronomy

Nov. 27, 2012 Rise Set
Actual Time 7:00 AM CST 5:40 PM CST
Civil Twilight 6:35 AM CST 6:05 PM CST
Nautical Twilight 6:07 AM CST 6:33 PM CST
Astronomical Twilight 5:39 AM CST 7:01 PM CST
Moon 5:11 PM CST 6:09 AM CST
Length of Visible Light 11h 29m
Length of Day
10h 39m
Waxing Gibbous, 99% of the Moon is Illuminated
Nov 27
Waxing Gibbous
Nov 28
Full
Dec 6
Last Quarter
Dec 13
New
Dec 19
First Quarter

Hourly Weather History & Observations

Time (CST) Temp. Dew Point Humidity Pressure Visibility Wind Dir Wind Speed Gust Speed Precip Events Conditions
12:53 AM 72.0 °F 63.0 °F 73% 30.07 in 10.0 mi NNW 10.4 mph - N/A   Partly Cloudy
1:53 AM 72.0 °F 61.0 °F 68% 30.07 in 10.0 mi NNE 5.8 mph - N/A   Clear
2:53 AM 68.0 °F 62.1 °F 81% 30.07 in 10.0 mi North 3.5 mph - N/A   Clear
3:53 AM 66.9 °F 60.1 °F 79% 30.09 in 10.0 mi NW 8.1 mph - N/A   Partly Cloudy
4:53 AM 66.0 °F 59.0 °F 78% 30.10 in 10.0 mi NW 6.9 mph - N/A   Clear
5:53 AM 64.9 °F 59.0 °F 81% 30.14 in 10.0 mi NNW 9.2 mph - N/A   Partly Cloudy
6:53 AM 66.0 °F 59.0 °F 78% 30.18 in 10.0 mi North 9.2 mph - N/A   Mostly Cloudy
7:53 AM 66.9 °F 57.0 °F 70% 30.22 in 10.0 mi NNE 13.8 mph - N/A   Overcast
8:15 AM 66.2 °F 55.4 °F 68% 30.24 in 10.0 mi North 10.4 mph 20.7 mph N/A   Scattered Clouds
8:53 AM 69.1 °F 50.0 °F 51% 30.27 in 10.0 mi NNE 10.4 mph - N/A   Clear
9:53 AM 68.0 °F 48.9 °F 50% 30.31 in 10.0 mi North 16.1 mph - N/A   Overcast
10:53 AM 70.0 °F 48.9 °F 47% 30.32 in 10.0 mi North 17.3 mph 25.3 mph N/A   Clear
11:53 AM 71.1 °F 51.1 °F 49% 30.30 in 10.0 mi NNW 15.0 mph 23.0 mph N/A   Clear
12:53 PM 70.0 °F 52.0 °F 53% 30.29 in 10.0 mi NNW 12.7 mph - N/A   Partly Cloudy
1:53 PM 70.0 °F 52.0 °F 53% 30.27 in 10.0 mi NW 12.7 mph - N/A   Scattered Clouds
2:53 PM 71.1 °F 51.1 °F 49% 30.26 in 10.0 mi NNW 12.7 mph - N/A   Clear
3:53 PM 72.0 °F 50.0 °F 46% 30.25 in 10.0 mi North 12.7 mph - N/A   Clear
4:53 PM 71.1 °F 50.0 °F 47% 30.25 in 10.0 mi North 9.2 mph - N/A   Clear
5:53 PM 69.1 °F 50.0 °F 51% 30.27 in 10.0 mi North 5.8 mph - N/A   Clear
6:53 PM 68.0 °F 48.9 °F 50% 30.28 in 10.0 mi North 6.9 mph - N/A   Clear
7:53 PM 66.0 °F 48.0 °F 52% 30.30 in 10.0 mi NNE 5.8 mph - N/A   Clear
8:53 PM 64.9 °F 46.9 °F 52% 30.31 in 10.0 mi NE 4.6 mph - N/A   Clear
9:53 PM 63.0 °F 46.9 °F 56% 30.32 in 10.0 mi NE 5.8 mph - N/A   Clear
10:53 PM 62.1 °F 46.0 °F 56% 30.34 in 10.0 mi NE 3.5 mph - N/A   Clear
11:53 PM 60.1 °F 46.0 °F 60% 30.33 in 10.0 mi NNE 5.8 mph - N/A   Clear